This demonstration page uses our WeatherBlox Daily Observations layout. Learn more.

Left ArrowRight Arrow

Hourly Observations for November 12, 2021

Temp ( °F °C ) Dew Point ( °F °C ) Humidity (%) Winds ( mph kmh ) Pressure ( in mb ) Visibility ( mi km ) Precip ( " mm )
12:56 am 00:56 Cloudy 37 2.8 18 -7.8 46 46 NW 26 43 29.99 1016 10 16 0.00 0.00
1:56 am 01:56 Partly Cloudy 35 1.7 19 -7.2 52 52 NW 23 37 30.02 1017 10 16 0.00 0.00
2:56 am 02:56 Mostly Clear 33 0.6 19 -7.2 56 56 NW 25 41 30.04 1017 10 16 0.00 0.00
3:56 am 03:56 Clear 32 0 20 -6.7 61 61 NW 20 31 30.05 1018 10 16 0.00 0.00
4:56 am 04:56 Clear 30 -1.1 20 -6.7 66 66 NW 16 26 30.07 1018 10 16 0.00 0.00
5:56 am 05:56 Clear 30 -1.1 20 -6.7 66 66 NW 23 37 30.08 1019 10 16 0.00 0.00
6:56 am 06:56 Cloudy 30 -1.1 20 -6.7 66 66 NW 22 35 30.11 1020 10 16 0.00 0.00
7:56 am 07:56 Cloudy 32 0 20 -6.7 61 61 NNW 26 43 30.13 1020 10 16 0.00 0.00
8:56 am 08:56 Cloudy 32 0 18 -7.8 56 56 NNW 28 44 30.16 1021 10 16 0.00 0.00
9:56 am 09:56 Cloudy 34 1.1 18 -7.8 52 52 NW 26 43 30.17 1022 10 16 0.00 0.00
10:56 am 10:56 Mostly Cloudy 35 1.7 19 -7.2 52 52 NNW 29 46 30.19 1022 10 16 0.00 0.00
11:56 am 11:56 Mostly Sunny 37 2.8 19 -7.2 48 48 NNW 26 43 30.19 1022 10 16 0.00 0.00
12:56 pm 12:56 Mostly Cloudy 38 3.3 19 -7.2 46 46 NNW 31 50 30.18 1022 10 16 0.00 0.00
1:56 pm 13:56 Partly Cloudy 40 4.4 19 -7.2 43 43 NNW 31 50 30.18 1022 10 16 0.00 0.00
2:56 pm 14:56 Mostly Cloudy 41 5 19 -7.2 41 41 NNW 24 39 30.19 1023 10 16 0.00 0.00
3:56 pm 15:56 Mostly Sunny 40 4.4 19 -7.2 43 43 N 22 35 30.22 1023 10 16 0.00 0.00
4:56 pm 16:56 Sunny 39 3.9 18 -7.8 43 43 NNW 15 24 30.24 1024 10 16 0.00 0.00
5:56 pm 17:56 Clear 35 1.7 17 -8.3 48 48 NNW 9 15 30.25 1024 10 16 0.00 0.00
6:56 pm 18:56 Clear 32 0 18 -7.8 56 56 NW 5 7 30.27 1025 10 16 0.00 0.00
7:56 pm 19:56 Clear 29 -1.7 18 -7.8 63 63 NW 6 9 30.27 1025 10 16 0.00 0.00
8:56 pm 20:56 Clear 27 -2.8 17 -8.3 66 66 NW 7 11 30.28 1026 10 16 0.00 0.00
9:56 pm 21:56 Clear 23 -5 17 -8.3 78 78 N 7 11 30.29 1026 10 16 0.00 0.00
10:56 pm 22:56 Clear 24 -4.4 16 -8.9 71 71 Calm 30.28 1025 10 16 0.00 0.00
11:56 pm 23:56 Clear 21 -6.1 14 -10 74 74 NE 5 7 30.27 1025 10 16 0.00 0.00

Powered by AerisWeather